Madison, MN

2:59 PM CST on November 22, 2019 (GMT -0600)
Madison-Lac Qui Parle County

Weather History for KDXX - October, 2019

Change the Weather History Date:

Monday, October 21, 2019

  Actual Average (KAQP) Record (KAQP)
Temperature  
Mean Temperature 48 °F -  
Max Temperature 53 °F 52 °F 73 °F (2017)
Min Temperature 44 °F 33 °F 24 °F (1997)
Degree Days  
Heating Degree Days 16    
Moisture  
Dew Point 45 °F    
Average Humidity 89    
Maximum Humidity 94    
Minimum Humidity 72    
Precipitation  
Precipitation 0.44 in - - ()
Sea Level Pressure  
Sea Level Pressure 29.41 in    
Wind  
Wind Speed 18 mph (NNE)    
Max Wind Speed 41 mph    
Max Gust Speed 54 mph    
Visibility 8 miles    
Events Rain    
Averages and records for this station are not official NWS values.
T = Trace of Precipitation, MM = Missing Value Source: NWS Daily Summary

Daily Weather History Graph

Daily Weather History Graph

Search for Another Location

Airport or City:

Astronomy

Oct. 21, 2019 Rise Set
Actual Time 7:48 AM CDT 6:29 PM CDT
Civil Twilight 7:18 AM CDT 6:59 PM CDT
Nautical Twilight 6:43 AM CDT 7:33 PM CDT
Astronomical Twilight 6:09 AM CDT 8:07 PM CDT
Moon No Moon Rise 3:16 PM CDT (10/21)
Length of Visible Light 11h 41m
Length of Day
10h 41m
Waning Gibbous, 48% of the Moon is Illuminated
Oct 21
Waning Gibbous
Oct 27
New
Nov 4
First Quarter
Nov 12
Full
Nov 19
Last Quarter

Hourly Weather History & Observations

Time (CDT) Temp. Windchill Dew Point Humidity Pressure Visibility Wind Dir Wind Speed Gust Speed Precip Events Conditions
12:17 AM 53.6 °F - 44.6 °F 72% 29.62 in 10.0 mi SE 12.7 mph 21.9 mph N/A   Light Drizzle
12:35 AM 53.6 °F - 44.6 °F 72% 29.60 in 10.0 mi ESE 9.2 mph - N/A   Overcast
12:36 AM 53.6 °F - 44.6 °F 72% 29.59 in 10.0 mi ESE 9.2 mph - N/A   Overcast
12:55 AM 51.8 °F - 44.6 °F 76% 29.59 in 10.0 mi ESE 10.4 mph - N/A   Light Drizzle
1:18 AM 51.8 °F - 46.4 °F 82% 29.57 in 10.0 mi ESE 6.9 mph - 0.01 in Rain Rain
1:36 AM 51.8 °F - 46.4 °F 82% 29.56 in 10.0 mi East 10.4 mph - 0.03 in Rain Light Rain
1:56 AM 51.8 °F - 46.4 °F 82% 29.55 in 10.0 mi East 12.7 mph - N/A Rain Rain
2:15 AM 51.8 °F - 46.4 °F 82% 29.54 in 10.0 mi East 12.7 mph - N/A Rain Light Rain
2:16 AM 51.8 °F - 46.4 °F 82% 29.54 in 10.0 mi East 13.8 mph - 0.01 in Rain Light Rain
2:35 AM 51.8 °F - 46.4 °F 82% 29.53 in 10.0 mi East 11.5 mph - N/A Rain Light Rain
2:57 AM 51.8 °F - 46.4 °F 82% 29.51 in 10.0 mi East 13.8 mph - N/A   Overcast
3:15 AM 53.6 °F - 46.4 °F 77% 29.50 in 10.0 mi ESE 16.1 mph 21.9 mph N/A   Overcast
3:35 AM 53.6 °F - 46.4 °F 77% 29.49 in 10.0 mi East 12.7 mph - N/A   Overcast
3:55 AM 53.6 °F - 46.4 °F 77% 29.48 in 10.0 mi East 15.0 mph 19.6 mph N/A   Overcast
4:19 AM 53.6 °F - 46.4 °F 77% 29.48 in 10.0 mi East 19.6 mph 23.0 mph N/A   Overcast
4:36 AM 51.8 °F - 46.4 °F 82% 29.47 in 7.0 mi East 13.8 mph 20.7 mph N/A Rain Rain
4:56 AM 51.8 °F - 48.2 °F 88% 29.47 in 7.0 mi ESE 9.2 mph - N/A Rain Light Rain
5:15 AM 51.8 °F - 48.2 °F 88% 29.47 in 10.0 mi East 15.0 mph 19.6 mph N/A Rain Rain
5:16 AM 51.8 °F - 48.2 °F 88% 29.47 in 10.0 mi East 15.0 mph 19.6 mph N/A Rain Rain
5:35 AM 50.0 °F - 48.2 °F 94% 29.47 in 10.0 mi East 17.3 mph 23.0 mph N/A Rain Heavy Rain
5:39 AM 50.0 °F - 48.2 °F 94% 29.47 in 10.0 mi East 16.1 mph 23.0 mph N/A Rain Light Rain
5:58 AM 50.0 °F - 46.4 °F 87% 29.46 in 10.0 mi East 16.1 mph 24.2 mph N/A Rain Rain
6:35 AM 48.2 °F - 46.4 °F 93% 29.45 in 10.0 mi East 16.1 mph 20.7 mph N/A Rain Rain
6:36 AM 48.2 °F - 46.4 °F 93% 29.45 in 10.0 mi East 15.0 mph 20.7 mph 0.07 in Rain Light Rain
6:55 AM 48.2 °F - 46.4 °F 93% 29.45 in 10.0 mi ENE 16.1 mph 20.7 mph N/A Rain Rain
6:56 AM 48.2 °F - 46.4 °F 93% 29.45 in 10.0 mi ENE 15.0 mph 20.7 mph N/A Rain Light Rain
7:18 AM 48.2 °F - 46.4 °F 93% 29.44 in 10.0 mi ENE 13.8 mph 23.0 mph N/A Rain Light Rain
7:36 AM 48.2 °F - 46.4 °F 93% 29.43 in 10.0 mi NNE 12.7 mph - 0.03 in Rain Light Rain
7:55 AM 48.2 °F - 46.4 °F 93% 29.42 in 10.0 mi North 10.4 mph - N/A Rain Rain
8:15 AM 48.2 °F - 46.4 °F 93% 29.42 in 4.0 mi North 11.5 mph - N/A Rain Light Rain
8:16 AM 48.2 °F - 46.4 °F 93% 29.42 in 3.0 mi North 11.5 mph - 0.04 in Rain Light Rain
8:35 AM 48.2 °F - 46.4 °F 93% 29.41 in 5.0 mi North 10.4 mph - N/A Rain Light Rain
8:57 AM 48.2 °F - 46.4 °F 93% 29.41 in 7.0 mi North 8.1 mph - N/A   Overcast
9:15 AM 48.2 °F - 46.4 °F 93% 29.40 in 2.5 mi North 6.9 mph - N/A   Overcast
9:35 AM 48.2 °F - 46.4 °F 93% 29.39 in 5.0 mi North 4.6 mph - N/A   Overcast
9:36 AM 48.2 °F - 46.4 °F 93% 29.39 in 5.0 mi North 5.8 mph - 0.05 in   Overcast
9:55 AM 48.2 °F - 46.4 °F 93% 29.38 in 4.0 mi NNE 10.4 mph - N/A   Overcast
9:56 AM 48.2 °F - 46.4 °F 93% 29.38 in 4.0 mi NNE 10.4 mph - N/A   Overcast
10:18 AM 48.2 °F - 46.4 °F 93% 29.38 in 10.0 mi NNE 19.6 mph 27.6 mph N/A Rain Rain
10:37 AM 48.2 °F - 46.4 °F 93% 29.38 in 10.0 mi NNE 21.9 mph 32.2 mph 0.03 in Rain Rain
10:55 AM 48.2 °F - 46.4 °F 93% 29.37 in 10.0 mi NNE 19.6 mph 27.6 mph N/A Rain Rain
10:56 AM 48.2 °F - 46.4 °F 93% 29.37 in 10.0 mi NNE 19.6 mph 27.6 mph N/A Rain Rain
11:15 AM 48.2 °F - 46.4 °F 93% 29.36 in 7.0 mi North 23.0 mph 29.9 mph N/A Rain Rain
11:16 AM 48.2 °F - 46.4 °F 93% 29.36 in 10.0 mi North 18.4 mph 29.9 mph N/A Rain Rain
11:38 AM 48.2 °F - 44.6 °F 87% 29.36 in 7.0 mi North 23.0 mph 33.4 mph N/A Rain Light Rain
11:56 AM 46.4 °F 38.7 °F 44.6 °F 93% 29.35 in 4.0 mi North 20.7 mph 32.2 mph N/A Rain Light Rain
12:15 PM 46.4 °F 37.9 °F 44.6 °F 93% 29.34 in 7.0 mi North 25.3 mph 34.5 mph N/A Rain Light Rain
12:16 PM 48.2 °F - 44.6 °F 87% 29.34 in 7.0 mi North 26.5 mph 34.5 mph 0.03 in Rain Light Rain
12:35 PM 48.2 °F - 44.6 °F 87% 29.33 in 10.0 mi North 23.0 mph 32.2 mph N/A Rain Light Rain
12:36 PM 48.2 °F - 44.6 °F 87% 29.33 in 10.0 mi North 25.3 mph 32.2 mph 0.01 in Rain Light Rain
12:55 PM 46.4 °F 38.1 °F 44.6 °F 93% 29.32 in 10.0 mi North 24.2 mph 32.2 mph N/A Rain Light Rain
12:59 PM 46.4 °F 38.1 °F 44.6 °F 93% 29.32 in 10.0 mi North 24.2 mph 33.4 mph N/A Rain Light Rain
1:16 PM 46.4 °F 38.5 °F 44.6 °F 93% 29.31 in 10.0 mi North 21.9 mph 33.4 mph 0.01 in Rain Light Rain
1:36 PM 46.4 °F 38.5 °F 44.6 °F 93% 29.31 in 10.0 mi North 21.9 mph 31.1 mph 0.01 in Rain Light Rain
1:55 PM 46.4 °F 38.1 °F 44.6 °F 93% 29.30 in 7.0 mi North 24.2 mph 31.1 mph N/A Rain Light Rain
2:15 PM 46.4 °F 37.4 °F 44.6 °F 93% 29.29 in 7.0 mi North 28.8 mph 35.7 mph N/A Rain Rain
2:19 PM 46.4 °F 37.7 °F 44.6 °F 93% 29.29 in 7.0 mi North 26.5 mph 35.7 mph 0.02 in Rain Rain
2:38 PM 48.2 °F - 44.6 °F 87% 29.29 in 7.0 mi North 32.2 mph 38.0 mph 0.02 in Rain Light Rain
2:55 PM 46.4 °F 37.7 °F 44.6 °F 93% 29.29 in 4.0 mi North 26.5 mph 38.0 mph N/A Rain Rain
3:15 PM 46.4 °F 37.5 °F 44.6 °F 93% 29.30 in 7.0 mi North 27.6 mph 38.0 mph N/A Rain Rain
3:16 PM 46.4 °F 37.2 °F 44.6 °F 93% 29.29 in 7.0 mi North 29.9 mph 38.0 mph 0.01 in Rain Rain
3:35 PM 46.4 °F 37.2 °F 44.6 °F 93% 29.30 in 10.0 mi North 29.9 mph 35.7 mph N/A Rain Rain
3:58 PM 46.4 °F 37.2 °F 44.6 °F 93% 29.31 in 10.0 mi NNW 29.9 mph 42.6 mph N/A Rain Rain
4:15 PM 46.4 °F 36.9 °F 42.8 °F 87% 29.31 in 7.0 mi North 32.2 mph 39.1 mph N/A Rain Light Rain
4:35 PM 46.4 °F 37.0 °F 44.6 °F 93% 29.32 in 3.0 mi North 31.1 mph 46.0 mph N/A Rain Light Rain
4:36 PM 46.4 °F 37.4 °F 44.6 °F 93% 29.32 in 3.0 mi North 28.8 mph 46.0 mph N/A   Overcast
4:55 PM 46.4 °F 37.2 °F 44.6 °F 93% 29.32 in 10.0 mi NNW 29.9 mph 42.6 mph N/A Rain Rain
4:56 PM 46.4 °F 37.0 °F 44.6 °F 93% 29.32 in 10.0 mi NNW 31.1 mph 43.7 mph N/A Rain Rain
5:19 PM 46.4 °F 37.2 °F 44.6 °F 93% 29.33 in 5.0 mi NNW 29.9 mph 41.4 mph 0.02 in Rain Heavy Rain
5:37 PM 46.4 °F 36.7 °F 42.8 °F 87% 29.33 in 5.0 mi NNW 33.4 mph 47.2 mph 0.02 in Rain Light Rain
5:56 PM 46.4 °F 36.7 °F 44.6 °F 93% 29.34 in 4.0 mi NNW 33.4 mph 44.9 mph N/A   Overcast
6:15 PM 48.2 °F - 44.6 °F 87% 29.35 in 7.0 mi NNW 31.1 mph 47.2 mph N/A Rain Light Rain
6:35 PM 46.4 °F 36.5 °F 44.6 °F 93% 29.35 in 4.0 mi NNW 34.5 mph 44.9 mph N/A Rain Rain
6:39 PM 46.4 °F 36.5 °F 44.6 °F 93% 29.36 in 4.0 mi NNW 34.5 mph 44.9 mph N/A Rain Rain
6:57 PM 46.4 °F 35.7 °F 44.6 °F 93% 29.36 in 3.0 mi NNW 41.4 mph 50.6 mph N/A   Overcast
7:16 PM 46.4 °F 36.9 °F 44.6 °F 93% 29.37 in 5.0 mi NNW 32.2 mph 44.9 mph 0.03 in Rain Rain
7:35 PM 46.4 °F 36.3 °F 44.6 °F 93% 29.38 in 7.0 mi NNW 36.8 mph 46.0 mph N/A Rain Rain
7:36 PM 46.4 °F 36.3 °F 44.6 °F 93% 29.38 in 7.0 mi NNW 36.8 mph 46.0 mph 0.04 in Rain Rain
7:55 PM 46.4 °F 36.4 °F 44.6 °F 93% 29.39 in 10.0 mi NNW 35.7 mph 46.0 mph N/A Rain Light Rain
7:56 PM 46.4 °F 36.7 °F 44.6 °F 93% 29.39 in 10.0 mi NNW 33.4 mph 46.0 mph N/A Rain Light Rain
8:19 PM 46.4 °F 36.5 °F 44.6 °F 93% 29.40 in 7.0 mi NNW 34.5 mph 51.8 mph N/A Rain Rain
8:36 PM 46.4 °F 36.3 °F 42.8 °F 87% 29.41 in 7.0 mi NNW 36.8 mph 54.1 mph 0.01 in Rain Light Rain
8:55 PM 46.4 °F 36.4 °F 44.6 °F 93% 29.42 in 10.0 mi NNW 35.7 mph 50.6 mph N/A Rain Light Rain
9:15 PM 46.4 °F 36.7 °F 42.8 °F 87% 29.43 in 7.0 mi NW 33.4 mph 50.6 mph N/A Rain Light Rain
9:16 PM 46.4 °F 36.7 °F 42.8 °F 87% 29.43 in 7.0 mi NW 33.4 mph 50.6 mph 0.01 in Rain Light Rain
9:35 PM 46.4 °F 36.3 °F 42.8 °F 87% 29.44 in 7.0 mi NW 36.8 mph 49.5 mph N/A Rain Light Rain
9:39 PM 46.4 °F 36.4 °F 42.8 °F 87% 29.44 in 7.0 mi NNW 35.7 mph 48.3 mph 0.01 in Rain Light Rain
9:58 PM 44.6 °F 33.6 °F 42.8 °F 93% 29.46 in 7.0 mi NNW 38.0 mph 47.2 mph N/A Rain Light Rain
10:15 PM 44.6 °F 34.1 °F 42.8 °F 93% 29.47 in 10.0 mi NNW 34.5 mph 46.0 mph N/A Rain Rain
10:35 PM 44.6 °F 34.9 °F 42.8 °F 93% 29.48 in 10.0 mi NW 28.8 mph 41.4 mph N/A Rain Light Rain
10:36 PM 44.6 °F 34.9 °F 42.8 °F 93% 29.48 in 10.0 mi NW 28.8 mph 38.0 mph 0.02 in Rain Light Rain
10:55 PM 44.6 °F 34.4 °F 42.8 °F 93% 29.49 in 10.0 mi NW 32.2 mph 44.9 mph N/A Rain Light Rain
11:18 PM 44.6 °F 34.9 °F 42.8 °F 93% 29.50 in 10.0 mi NW 28.8 mph 41.4 mph N/A Rain Light Rain
11:36 PM 44.6 °F 34.1 °F 42.8 °F 93% 29.50 in 10.0 mi NNW 34.5 mph 43.7 mph 0.01 in Rain Light Rain
11:55 PM 44.6 °F 35.1 °F 41.0 °F 87% 29.51 in 10.0 mi NW 27.6 mph 41.4 mph N/A Rain Light Rain